Lapse_Rate
6.9 6.8 6.7 6.6 6.3 6.5 6.4 6.3 6.2 6.3 6.0 5.9 6.0 6.3 6.5 6.5 6.5 6.3 6.1 6.2 6.4 6.3
6.6 6.6 6.6 6.4 6.3 6.0 6.2 6.1 6.3 6.2 6.1 6.3 6.4 6.5 6.6 6.5 6.5 6.6 6.6 6.5 6.4 6.4
6.5 6.3 6.3 6.3 6.2 6.2 6.1 6.1 6.2 6.2 6.5 6.4 6.4 6.4 6.4 6.4 6.5 6.5 6.5 6.5 6.5 6.3
6.3 6.3 6.8 6.5 6.6 6.7 6.7 6.9 6.6 6.4 6.3 6.5 6.5 6.5 6.5 6.4 6.4 6.4 6.5 6.5 6.6 6.7
6.3 6.7 6.3 6.5 6.8 6.8 6.7 6.6 6.6 6.5 6.6 6.5 6.6 6.5 6.5 6.5 6.7 6.7 6.8 6.8 6.9 6.8
6.7 6.5 6.4 6.6 6.8 6.5 6.6 7.0 6.7 6.5 6.4 6.5 6.5 6.5 6.7 6.7 6.7 6.8 6.7 6.7 6.8 6.9
6.4 6.4 6.4 6.6 6.6 6.6 6.8 6.8 6.7 6.5 6.5 6.4 6.4 6.5 6.5 6.4 6.6 6.6 6.8 6.9 6.9 6.9
6.9 6.5 6.5 6.7 6.7 6.6 6.7 6.8 6.6 6.5 6.4 6.4 6.3 6.3 6.3 6.6 6.7 6.6 6.7 6.9 7.0 7.0
7.1 7.0 7.1 6.9 6.6 6.6 6.7 6.7 6.6 6.4 6.4 6.2 6.1 6.3 6.4 6.4 6.5 6.5 6.7 6.8 6.9 7.0
7.4 7.1 6.8 6.7 6.9 6.8 6.9 6.6 6.4 6.3 6.2 6.0 6.1 6.2 6.3 6.3 6.4 6.5 6.7 6.8 6.8 6.9
7.3 7.3 7.0 6.7 6.8 6.8 6.6 6.4 6.3 6.2 6.1 6.0 6.1 6.1 6.1 6.3 6.4 6.5 6.6 6.7 6.9 7.0
7.4 7.0 6.8 6.7 6.5 6.5 6.4 6.3 6.2 6.1 5.9 6.0 6.0 6.0 6.2 6.4 6.4 6.5 6.6 6.7 6.7 6.8
7.1 6.9 6.7 6.7 6.7 6.7 6.5 6.2 6.0 5.9 5.8 5.9 5.9 6.1 6.2 6.3 6.3 6.5 6.6 6.6 6.7 6.8
7.0 6.8 6.6 6.6 6.6 6.6 6.3 6.0 5.8 5.8 5.8 5.8 5.9 6.0 6.1 6.1 6.2 6.2 6.2 6.5 6.6 6.7
Wind_Speed
9 6 6 6 5 4 4 3 5 7 7 7 7 6 6 4 5 5 5 7 7 5
7 7 7 7 6 5 4 4 5 4 5 5 6 7 5 4 5 5 5 5 6 5
9 8 8 7 7 6 5 6 4 4 5 5 7 5 4 4 5 5 5 5 7 7
9 8 8 8 7 7 6 6 3 4 5 5 5 5 4 4 5 5 6 7 7 8
10 9 8 8 8 7 7 6 5 5 5 4 4 4 5 6 6 6 7 7 8 8
11 10 8 8 8 7 7 6 7 6 5 4 4 4 5 5 5 6 7 7 8 9
10 9 9 8 8 7 6 7 7 7 5 4 4 4 4 4 5 6 7 7 7 9
9 8 8 7 7 7 6 7 7 6 5 5 5 5 4 4 5 6 6 7 7 10
8 9 8 7 6 8 7 6 7 6 5 6 6 8 7 6 5 6 7 7 7 8
10 10 8 9 8 8 7 7 8 7 7 7 7 7 6 5 5 5 6 7 7 6
11 10 10 9 8 9 7 7 7 7 6 6 6 6 5 3 4 5 6 6 8 7
12 12 11 10 10 10 8 7 7 6 5 5 7 6 2 3 2 4 4 5 11 9
12 12 12 11 10 9 8 7 6 6 5 5 8 8 4 1 2 3 3 4 6 13
12 12 12 11 9 9 8 7 7 7 5 6 6 7 6 2 3 3 3 3 4 5
Wind_Direction
138 123 116 115 114 96 78 79 64 59 50 43 38 20 21 17 34 24 21 24 23 7
126 126 121 121 120 106 118 107 78 72 69 46 45 31 13 19 25 27 22 21 19 3
139 139 142 131 121 121 118 98 89 75 71 67 48 39 11 21 29 22 24 14 19 9
142 150 140 133 130 119 115 107 107 85 74 58 57 42 26 33 31 36 35 29 18 12
149 151 151 140 132 133 131 124 104 86 74 67 58 53 45 40 30 27 28 24 24 10
162 160 153 143 133 143 136 124 110 88 78 75 62 51 53 46 40 38 31 23 27 16
167 161 155 144 140 138 132 124 109 98 92 79 70 61 61 52 52 51 43 31 33 30
159 150 142 140 137 136 128 118 107 111 106 93 68 37 37 64 55 46 47 41 37 44
147 143 141 142 142 130 122 116 107 109 110 98 79 63 40 6 68 58 46 36 30 31
143 146 137 153 151 123 122 118 114 105 101 91 89 85 70 34 65 68 56 41 28 26
144 142 148 131 145 133 129 135 124 121 120 108 100 102 93 86 83 81 64 45 34 32
150 150 146 149 155 136 142 140 126 130 137 126 105 90 89 276 135 96 77 60 48 33
150 148 152 156 151 140 146 135 131 132 132 114 111 99 84 283 115 110 103 75 55 45
149 153 155 149 146 147 145 138 144 139 132 133 114 106 97 67 119 118 112 78 64 46